Weather History for Dutch Harbor, AK

Change the Weather History Date:

Sunday, February 9, 2014

  Actual Average Record
Temperature  
Mean Temperature 3 °C -  
Max Temperature 6 °C 3 °C 52 °C (1997)
Min Temperature 1 °C -2 °C -26 °C (1997)
Degree Days  
Heating Degree Days 27    
Moisture  
Dew Point 0 °C    
Average Humidity 81    
Maximum Humidity 93    
Minimum Humidity 67    
Precipitation  
Precipitation 0.51 mm - - ()
Sea Level Pressure  
Sea Level Pressure 1016 hPa    
Wind  
Wind Speed 23 km/h (North)    
Max Wind Speed 39 km/h    
Max Gust Speed 58 km/h    
Visibility 13 kilometers    
Events Rain , Snow    
Averages and records for this station are not official NWS values.
T = Trace of Precipitation, MM = Missing Value Source: NWS Daily Summary

Daily Weather History Graph

Daily Weather History Graph

Search for Another Location

Airport:

Trip Planner

Search our weather history database for the weather conditions in past years. The results will help you decide how hot, cold, wet, or windy it might be!

Date:

Astronomy

Feb. 09, 2014 Rise Set
Actual Time 9:37 AM AKST 7:04 PM AKST
Civil Twilight 9:00 AM AKST 7:41 PM AKST
Nautical Twilight 8:18 AM AKST 8:23 PM AKST
Astronomical Twilight 7:37 AM AKST 9:04 PM AKST
Moon 2:37 PM AKST (2/9) 6:09 AM AKST (2/9)
Length of Visible Light 10h 41m
Length of Day
9h 26m
Waxing Gibbous, 78% of the Moon is Illuminated
Feb 9
Waxing Gibbous
Feb 14
Full
Feb 22
Last Quarter
Feb 28
New
Mar 8
First Quarter

Hourly Weather History & Observations

Time (AKST) Temp. Windchill Dew Point Humidity Pressure Visibility Wind Dir Wind Speed Gust Speed Precip Events Conditions
12:56 AM 4.4 °C -0.8 °C 0.0 °C 73% - 16.1 km NNE 31.5 km/h / 8.7 m/s 42.6 km/h / 11.8 m/s N/A   Clear
1:56 AM 4.4 °C -0.1 °C 1.1 °C 79% - 16.1 km NNE 24.1 km/h / 6.7 m/s 33.3 km/h / 9.3 m/s N/A   Mostly Cloudy
2:28 AM 6.0 °C 1.9 °C 1.0 °C 70% - 16.1 km ENE 24.1 km/h / 6.7 m/s 31.5 km/h / 8.7 m/s N/A   Overcast
2:56 AM 6.1 °C 3.8 °C 1.1 °C 71% - 16.1 km NE 11.1 km/h / 3.1 m/s - N/A   Overcast
3:56 AM 5.6 °C 2.0 °C 2.2 °C 79% - 14.5 km ENE 18.5 km/h / 5.1 m/s - 0.0 mm Rain Light Rain
4:56 AM 5.6 °C 1.8 °C 1.7 °C 76% - 16.1 km NE 20.4 km/h / 5.7 m/s 29.6 km/h / 8.2 m/s 0.0 mm Rain Light Rain
5:56 AM 4.4 °C 1.1 °C 1.7 °C 83% - 16.1 km North 14.8 km/h / 4.1 m/s 29.6 km/h / 8.2 m/s 0.0 mm   Overcast
6:08 AM 4.0 °C 0.3 °C 2.0 °C 87% - 16.1 km NNE 16.7 km/h / 4.6 m/s - N/A   Overcast
6:56 AM 4.4 °C 0.3 °C 2.2 °C 86% 1016.8 hPa 14.5 km NNE 20.4 km/h / 5.7 m/s 35.2 km/h / 9.8 m/s N/A   Overcast
7:21 AM 4.0 °C -0.4 °C 2.0 °C 87% 1016.5 hPa 12.9 km NNE 22.2 km/h / 6.2 m/s 33.3 km/h / 9.3 m/s N/A   Overcast
7:56 AM 3.9 °C -1.3 °C 1.7 °C 86% 1017.2 hPa 16.1 km NE 29.6 km/h / 8.2 m/s 38.9 km/h / 10.8 m/s N/A   Overcast
8:07 AM 4.0 °C -1.2 °C 2.0 °C 87% - 16.1 km NNE 29.6 km/h / 8.2 m/s 38.9 km/h / 10.8 m/s N/A   Overcast
8:24 AM 4.0 °C -0.4 °C 2.0 °C 87% - 14.5 km NE 22.2 km/h / 6.2 m/s 37.0 km/h / 10.3 m/s N/A   Overcast
8:56 AM 3.9 °C -1.2 °C 1.7 °C 86% - 14.5 km NNE 27.8 km/h / 7.7 m/s 37.0 km/h / 10.3 m/s 0.0 mm Rain Light Rain
9:11 AM 4.0 °C -0.6 °C 2.0 °C 87% 1016.5 hPa 14.5 km NNE 24.1 km/h / 6.7 m/s 38.9 km/h / 10.8 m/s 0.0 mm Rain Light Rain
9:56 AM 3.9 °C 0.8 °C 1.7 °C 86% 1017.5 hPa 12.9 km North 13.0 km/h / 3.6 m/s 29.6 km/h / 8.2 m/s 0.0 mm   Overcast
10:08 AM 4.0 °C 0.9 °C 2.0 °C 87% 1016.8 hPa 14.5 km North 13.0 km/h / 3.6 m/s - 0.0 mm Rain Light Rain
10:56 AM 3.9 °C 0.2 °C 1.7 °C 86% 1017.5 hPa 14.5 km North 16.7 km/h / 4.6 m/s 25.9 km/h / 7.2 m/s 0.0 mm Rain Light Rain
11:00 AM 3.0 °C 0.0 °C 2.0 °C 93% - 4.0 km Variable 11.1 km/h / 3.1 m/s 37.0 km/h / 10.3 m/s 0.0 mm Rain Light Rain
11:18 AM 3.0 °C 0.5 °C 2.0 °C 93% 1016.8 hPa 8.0 km Variable 9.3 km/h / 2.6 m/s 42.6 km/h / 11.8 m/s 0.0 mm Rain Light Rain
11:56 AM 3.3 °C 0.8 °C 0.6 °C 83% 1017.5 hPa 8.0 km Variable 9.3 km/h / 2.6 m/s 33.3 km/h / 9.3 m/s 0.3 mm Rain Light Rain
12:56 PM 2.2 °C -3.2 °C 0.0 °C 86% 1017.5 hPa 12.9 km NNW 25.9 km/h / 7.2 m/s 38.9 km/h / 10.8 m/s 0.0 mm   Overcast
1:56 PM 2.2 °C -3.0 °C -1.1 °C 79% 1017.2 hPa 16.1 km North 24.1 km/h / 6.7 m/s 40.7 km/h / 11.3 m/s 0.3 mm   Overcast
2:56 PM 2.2 °C -2.5 °C -1.1 °C 79% 1016.8 hPa 16.1 km NNW 20.4 km/h / 5.7 m/s 40.7 km/h / 11.3 m/s N/A   Overcast
3:36 PM 2.0 °C -2.5 °C -1.0 °C 81% 1015.1 hPa 9.7 km North 18.5 km/h / 5.1 m/s 38.9 km/h / 10.8 m/s 0.0 mm Rain Light Rain
3:56 PM 1.1 °C -3.9 °C -1.1 °C 85% 1015.5 hPa 8.0 km North 20.4 km/h / 5.7 m/s 46.3 km/h / 12.9 m/s N/A Rain Rain
4:02 PM 1.0 °C -4.5 °C -1.0 °C 87% 1014.4 hPa 8.0 km NNW 24.1 km/h / 6.7 m/s 46.3 km/h / 12.9 m/s N/A Rain Light Rain
4:39 PM 1.0 °C -4.3 °C -1.0 °C 87% 1014.4 hPa 4.0 km NNW 22.2 km/h / 6.2 m/s 46.3 km/h / 12.9 m/s N/A Snow Light Snow
4:47 PM 1.0 °C -3.7 °C -2.0 °C 81% 1014.4 hPa 8.0 km North 18.5 km/h / 5.1 m/s 37.0 km/h / 10.3 m/s N/A Snow Light Snow
4:53 PM 1.0 °C -4.3 °C -1.0 °C 87% 1014.4 hPa 4.0 km NNE 22.2 km/h / 6.2 m/s 48.2 km/h / 13.4 m/s N/A Rain Light Rain
4:56 PM 1.1 °C -4.4 °C -1.7 °C 82% 1015.1 hPa 4.0 km North 24.1 km/h / 6.7 m/s 48.2 km/h / 13.4 m/s N/A Rain Light Rain
5:09 PM 1.0 °C -1.9 °C -2.0 °C 81% 1014.4 hPa 9.7 km Variable 9.3 km/h / 2.6 m/s 51.9 km/h / 14.4 m/s N/A Snow Light Snow
5:56 PM 1.1 °C -5.8 °C -2.8 °C 75% 1015.1 hPa 9.7 km North 38.9 km/h / 10.8 m/s 44.4 km/h / 12.3 m/s N/A Snow Light Snow
6:56 PM 0.6 °C -6.0 °C -3.9 °C 72% - 14.5 km NNW 33.3 km/h / 9.3 m/s 44.4 km/h / 12.3 m/s N/A Snow Light Snow
7:56 PM 1.1 °C -4.6 °C -3.3 °C 73% 1015.1 hPa 16.1 km North 25.9 km/h / 7.2 m/s 57.4 km/h / 15.9 m/s N/A   Overcast
8:56 PM 1.1 °C -5.0 °C -3.9 °C 70% - 14.5 km North 29.6 km/h / 8.2 m/s 46.3 km/h / 12.9 m/s N/A Rain Light Rain
9:56 PM 0.6 °C -5.4 °C -3.9 °C 72% - 16.1 km North 27.8 km/h / 7.7 m/s 50.0 km/h / 13.9 m/s N/A   Overcast
10:56 PM 1.1 °C -2.6 °C -4.4 °C 67% - 16.1 km North 13.0 km/h / 3.6 m/s 27.8 km/h / 7.7 m/s N/A   Overcast
11:56 PM 1.1 °C -4.6 °C -2.8 °C 75% - 12.9 km NE 25.9 km/h / 7.2 m/s 42.6 km/h / 11.8 m/s N/A Rain Light Rain